Location: Beaver Brook Station
(42.3793°N, 71.2203°W)
Time: 02:05:16
(UTC+00:00)

Cosmos 2360 - Pass Details

Date: 29 October 2020
Orbit: 848 x 854 km, 70.8° (Epoch: 05 December)

Event Time Altitude Azimuth Distance (km) Brightness Sun altitude
Rises 22:56:54 0° 190° (S) 3,408 7.6 -14.5°
Reaches altitude 10° 22:59:23 10° 186° (S) 2,476 6.8 -14.9°
Maximum altitude 23:04:56 56° 109° (ESE) 1,005 4.3 -15.9°
Drops below altitude 10° 23:10:31 10° 33° (NNE) 2,489 6.3 -17.0°
Enters shadow 23:10:45 - 32° (NNE) 2,581 6.4 -17.0°
